Helicity
16 31 38 37 39 39 39 38 34 29 24 20 16 10 6 5 10 20 25 50 29 25 23 22 24 15 19 20 41 31 25 9 11 18 41 40 38 27 29 27 30 39 49
44 47 51 49 45 44 48 42 39 31 26 22 21 18 17 13 14 24 33 41 49 37 33 28 18 15 21 40 64 67 74 84 66 49 49 33 39 33 32 29 31 34 39
55 56 55 50 50 52 50 47 47 37 34 31 22 23 17 14 18 17 23 29 39 31 23 21 20 4 8 70 94 95 89 68 45 54 70 79 30 39 34 26 23 32 38
59 59 54 49 53 56 58 58 57 46 42 39 29 26 21 21 12 9 22 15 22 24 46 39 41 26 29 73 98 72 88 65 58 62 60 72 101 85 32 19 25 26 33
62 58 57 51 55 59 57 67 69 55 53 46 39 36 31 25 18 21 16 30 30 36 37 67 59 57 55 82 83 91 107 92 59 55 72 47 71 88 76 74 18 19 26
66 58 70 58 73 78 75 82 76 74 68 59 47 40 34 25 20 22 17 17 30 34 39 49 53 82 113 98 120 163 164 120 89 72 67 63 52 56 66 84 82 59 20
63 72 77 75 88 91 80 89 111 92 71 62 63 55 40 27 32 41 27 43 37 53 61 57 66 99 148 297 273 221 164 141 110 70 55 50 40 31 49 58 71 83 59
68 83 86 97 100 117 130 135 134 109 100 98 96 84 59 47 62 48 66 44 51 55 62 85 106 131 136 182 219 253 202 152 121 99 42 24 29 17 42 83 97 94 100
104 87 87 113 119 149 196 224 211 183 161 128 94 83 81 66 63 53 51 56 51 66 109 121 137 156 176 197 210 205 189 165 120 98 61 55 14 22 63 65 57 40 48
75 63 78 86 113 185 164 195 178 169 160 166 117 84 57 63 49 43 25 54 79 93 115 123 122 145 172 192 218 229 192 168 142 127 117 97 86 92 93 88 68 69 102
71 68 156 145 182 187 219 262 214 96 152 149 132 95 37 33 46 46 49 58 58 81 120 130 125 132 152 174 208 217 228 196 158 153 141 103 78 75 89 92 125 121 115
128 45 52 101 188 124 73 101 142 128 151 218 128 95 14 24 24 49 68 84 84 93 121 109 118 133 149 161 189 197 186 179 200 186 171 128 104 76 76 94 154 184 136
211 169 149 94 142 156 110 143 146 125 112 88 123 88 64 42 72 75 96 96 124 132 135 103 122 145 156 160 177 185 196 158 156 162 167 133 54 49 64 115 135 134 112
165 192 195 179 152 131 183 132 116 119 142 131 113 107 114 99 68 75 82 125 108 88 81 80 116 123 148 172 183 174 172 193 160 132 146 101 63 62 93 112 122 122 114
145 182 142 149 166 167 163 172 145 147 149 141 121 100 84 96 109 116 116 133 129 135 114 143 109 119 146 166 176 173 199 193 149 162 103 91 74 70 77 88 104 105 103
154 203 183 159 186 194 200 202 185 153 138 126 114 101 98 116 110 130 142 143 150 152 169 161 145 138 140 174 184 169 166 168 186 147 88 71 69 80 72 74 93 82 90
170 201 200 217 219 225 217 192 149 143 143 143 145 100 106 138 151 166 157 151 136 135 134 162 171 166 163 171 178 166 155 170 170 150 98 50 80 78 70 58 66 77 98
152 205 245 266 267 254 215 169 146 143 134 119 84 98 115 134 128 134 134 130 133 147 170 143 174 169 171 169 172 174 163 151 145 118 77 93 78 72 57 54 62 68 87
180 215 241 249 248 220 182 164 154 149 130 100 119 111 118 122 126 134 126 126 130 149 158 170 185 187 187 180 188 168 156 140 94 61 73 97 80 63 44 46 56 78 88
179 200 209 220 215 207 195 178 165 155 128 127 126 120 121 125 132 125 122 124 136 144 156 155 173 187 179 164 162 148 123 88 66 51 66 67 61 55 53 52 65 82 101
193 194 197 203 201 192 185 168 159 138 116 116 109 111 119 137 152 139 119 127 132 143 149 154 168 173 157 143 131 107 91 66 43 50 48 44 46 53 58 61 64 88 98
187 191 185 182 182 176 154 138 138 118 106 92 90 103 120 136 124 132 139 151 143 123 116 130 141 145 126 108 94 80 54 61 46 46 47 50 47 64 62 60 66 84 100
159 166 171 170 158 159 139 120 102 107 96 88 94 103 125 139 142 135 158 158 155 143 117 98 100 88 81 57 49 45 45 51 58 52 41 37 50 52 55 58 70 73 77
148 159 164 160 161 154 115 99 92 96 83 61 60 79 97 115 129 117 118 126 130 121 111 90 63 62 45 54 47 49 48 65 57 47 35 54 41 42 51 54 68 77 101
148 142 143 142 138 135 100 90 88 86 70 55 60 75 105 124 118 110 117 116 107 110 103 99 87 65 72 86 65 62 78 76 50 53 42 39 50 48 32 39 56 92 92
178 167 156 135 122 116 99 84 94 100 78 82 75 86 95 119 106 102 105 102 107 104 94 83 74 71 61 81 66 55 52 64 63 51 42 44 38 39 41 41 49 54 49
Wind_Speed
10 10 13 15 17 19 20 20 22 22 23 25 27 29 31 34 35 35 36 33 35 36 35 33 32 32 32 34 34 32 30 33 30 31 26 23 23 24 28 31 33 33 33
16 16 17 20 22 25 24 23 21 22 25 27 29 31 33 34 36 36 37 38 36 39 38 36 37 34 34 36 31 33 36 38 37 39 42 24 22 22 26 27 29 29 29
22 23 24 25 24 25 24 24 24 26 28 28 32 33 35 37 37 41 41 43 44 40 42 41 41 43 43 33 29 30 35 38 40 44 48 45 27 22 24 25 26 26 26
27 29 32 29 29 29 26 25 24 24 26 28 32 34 36 38 43 46 45 47 46 49 44 41 44 46 44 30 26 28 34 38 44 48 51 47 43 39 36 25 23 22 22
32 34 37 36 33 29 31 29 25 25 26 29 32 35 38 41 43 44 46 49 51 52 52 48 47 45 41 29 26 29 34 39 44 47 49 50 47 46 45 44 31 21 18
38 41 41 45 37 33 34 29 26 26 30 32 35 39 41 42 44 46 50 52 50 50 48 47 45 40 39 33 26 30 34 39 43 46 48 50 50 46 45 45 42 38 20
41 44 42 48 42 39 35 31 28 30 32 33 37 40 41 45 47 42 42 45 49 48 49 50 46 39 37 33 33 33 36 39 44 48 51 52 51 49 46 46 44 42 38
46 48 44 46 46 40 35 30 28 30 30 31 39 45 45 45 38 38 41 45 46 48 50 48 44 40 37 36 37 38 40 43 46 51 52 53 51 50 46 43 40 41 40
46 47 50 46 46 39 31 28 31 36 36 35 37 41 46 46 51 39 43 44 46 48 48 48 43 39 37 36 36 38 40 44 47 50 52 54 52 48 46 45 45 43 42
48 49 51 43 45 28 27 24 26 32 37 43 40 35 38 42 47 55 46 47 48 50 52 49 46 43 40 38 39 42 44 46 47 49 52 49 50 50 50 52 49 43 39
55 62 59 44 30 36 33 31 32 36 37 42 45 45 44 43 46 50 59 53 53 52 52 52 47 43 41 39 39 40 45 46 46 46 48 47 51 52 54 52 48 43 42
34 35 37 35 32 29 24 21 24 25 30 39 48 54 53 52 49 51 56 59 61 60 48 45 45 43 41 41 42 44 44 44 46 48 49 50 51 55 55 53 47 48 50
34 24 19 25 27 25 20 23 22 14 23 28 29 37 44 51 53 52 56 60 60 53 48 43 42 41 40 39 41 42 45 44 46 47 49 52 53 54 52 52 50 52 52
19 9 14 19 14 5 11 1 6 8 11 16 29 42 45 45 47 47 50 53 60 50 48 48 43 41 40 41 42 43 43 45 45 47 49 53 52 50 50 51 51 51 52
13 8 9 5 4 7 4 6 11 15 18 22 28 31 37 41 42 43 40 43 47 58 56 46 47 43 43 41 41 41 42 44 44 45 46 48 49 49 48 49 49 48 47
24 16 17 15 14 12 12 15 17 21 23 28 34 39 43 43 41 42 42 43 43 49 58 49 47 47 43 41 39 39 40 39 41 41 44 47 45 45 46 48 48 49 49
27 22 20 18 17 16 15 18 24 26 27 32 39 41 41 39 41 41 42 42 43 43 52 51 50 48 45 42 40 41 41 41 41 42 45 45 42 42 44 46 46 48 49
27 24 24 23 24 21 21 24 28 31 35 38 39 41 42 41 41 40 41 41 41 42 49 53 48 46 44 40 39 38 38 37 38 42 44 43 38 39 43 46 46 47 46
27 23 24 24 24 24 25 27 31 35 39 40 42 43 41 38 37 38 39 41 44 45 45 46 46 42 41 37 38 37 35 34 37 39 41 39 37 38 42 44 45 45 46
28 25 25 26 26 26 28 29 31 35 36 37 38 37 37 38 38 39 41 41 42 43 41 42 41 41 41 38 35 35 35 35 35 35 35 37 36 38 42 41 44 45 45
29 27 28 28 27 28 30 30 32 33 34 35 36 38 39 38 40 41 42 40 39 39 39 40 40 39 37 35 31 31 31 30 32 32 31 33 33 35 39 40 43 44 43
32 30 31 31 29 31 30 32 35 37 36 35 36 38 37 38 39 39 39 38 37 36 35 37 35 34 32 31 28 26 26 27 30 31 28 28 31 35 37 38 41 40 39
40 38 36 35 36 35 29 31 33 37 38 37 34 34 37 37 36 36 35 36 37 37 36 34 33 28 28 23 22 21 20 22 30 30 28 32 30 26 31 34 36 36 35
39 37 37 36 36 36 31 32 32 36 38 36 32 31 34 33 33 33 35 36 36 35 35 33 31 29 26 23 22 24 20 25 28 30 31 33 29 29 28 31 35 36 34
39 39 39 38 38 38 33 33 32 33 33 33 34 35 34 33 32 30 32 32 32 31 32 32 29 25 23 23 22 23 24 23 28 30 28 32 32 32 33 34 34 35 35
41 38 39 38 37 37 33 32 32 36 37 37 36 36 33 32 29 26 29 29 28 26 25 24 24 23 22 23 25 26 22 20 27 30 27 28 32 35 38 33 33 32 33
Wind_Direction
244 261 277 288 298 305 310 319 321 323 325 324 323 322 320 320 321 327 331 340 340 341 345 347 350 352 354 356 360 4 7 5 8 5 9 12 13 12 7 2 1 3 6
257 265 276 286 294 296 303 310 316 319 319 318 318 320 321 323 324 327 331 333 338 338 339 341 342 345 347 350 357 360 1 2 7 4 358 358 0 1 357 357 355 1 6
263 267 277 286 292 295 301 305 307 311 312 314 313 316 318 319 323 323 327 327 330 337 335 336 337 334 334 345 354 357 360 360 3 360 356 355 351 349 346 345 349 353 359
262 268 275 286 288 291 297 301 306 311 313 314 314 315 317 319 318 318 322 323 328 327 332 334 333 332 334 341 350 355 357 358 357 356 355 354 353 347 339 331 336 342 351
262 268 273 281 284 293 292 294 302 307 310 314 314 315 315 317 319 321 322 323 324 325 324 327 329 330 333 339 345 349 353 352 353 353 354 355 349 341 335 333 330 328 337
263 266 276 276 283 289 288 292 297 300 305 310 313 312 313 315 319 320 319 322 327 330 332 332 333 337 334 336 344 346 346 348 349 350 351 348 345 342 334 329 329 332 323
266 269 276 278 281 283 286 288 292 295 300 308 310 312 314 315 317 324 328 331 332 335 336 335 334 337 341 342 342 343 345 347 346 347 345 342 340 338 334 327 326 329 329
272 272 278 282 282 282 283 284 286 294 300 307 306 309 311 315 324 330 331 331 332 333 334 337 338 337 338 337 337 339 339 341 342 341 341 341 339 336 334 333 333 331 333
278 278 278 280 282 281 279 285 290 290 293 303 309 308 309 309 314 321 327 329 329 331 334 335 336 336 335 335 335 335 336 338 339 340 339 339 337 338 336 332 329 328 325
284 282 280 282 283 273 272 280 289 295 300 299 305 314 315 315 314 311 321 324 328 328 330 331 330 331 330 331 332 332 332 332 335 335 336 339 339 335 333 331 328 329 328
285 279 275 274 284 279 279 287 286 290 303 300 301 305 311 314 313 312 312 318 322 324 326 327 328 328 328 326 327 328 327 329 331 331 333 335 333 330 325 327 332 333 328
290 298 281 264 285 275 292 304 295 303 299 297 298 295 300 307 312 314 315 316 316 318 327 328 326 325 326 326 326 327 328 329 329 329 329 332 331 327 324 321 321 321 318
286 291 293 280 288 294 280 308 310 329 321 318 305 306 303 306 312 315 315 315 317 322 324 325 325 327 326 326 327 327 329 329 328 329 328 327 328 327 325 321 317 313 312
293 288 289 291 292 286 311 332 331 342 346 339 317 309 312 317 316 317 317 319 317 321 322 322 328 326 326 324 325 325 327 327 327 326 326 325 327 327 326 319 316 311 309
302 282 290 285 265 288 289 310 315 323 328 325 320 320 320 319 320 321 321 319 317 318 320 323 326 329 326 325 325 325 325 326 325 328 328 329 328 327 327 318 313 312 318
296 287 290 289 288 289 299 304 308 315 319 320 319 317 319 319 318 319 318 318 316 315 315 324 325 327 328 328 329 330 329 328 329 330 328 327 326 325 325 317 309 308 303
290 284 282 285 284 288 297 302 306 312 317 319 316 315 318 321 319 320 320 319 317 316 313 319 323 325 325 325 327 329 329 328 327 328 325 326 325 325 324 315 309 308 302
292 285 283 283 285 291 296 298 303 310 313 314 315 315 315 318 318 320 321 321 321 320 318 318 322 324 324 325 326 327 328 330 330 330 327 324 325 328 318 311 311 307 298
292 290 285 283 283 288 292 298 304 309 311 312 314 315 316 317 318 319 322 322 321 321 321 320 322 327 327 326 324 325 326 327 328 329 327 323 319 323 317 317 315 307 293
292 290 286 284 286 288 293 297 302 307 311 316 318 320 320 320 319 320 320 321 322 322 323 322 324 326 326 326 324 323 323 324 324 327 328 321 318 319 317 323 316 303 292
293 289 287 286 287 290 292 296 301 305 310 314 317 319 320 321 322 321 322 324 324 324 325 325 325 328 327 327 325 328 327 330 327 327 328 325 326 325 322 320 309 301 296
287 286 286 286 286 290 290 293 299 303 306 310 313 316 319 322 323 325 326 327 326 327 328 329 328 327 329 330 333 335 335 335 329 329 334 336 330 323 320 316 307 305 303
285 284 283 284 285 287 285 291 297 302 305 309 312 315 317 321 323 326 328 331 333 334 333 334 332 333 333 338 341 342 344 343 329 333 339 330 337 345 329 323 316 313 308
282 280 279 279 281 285 284 289 296 301 305 308 312 315 318 322 322 322 324 326 330 335 335 334 332 337 339 342 339 338 345 343 341 334 331 323 336 334 338 326 320 314 314
280 279 279 278 280 282 281 286 293 299 303 307 313 317 317 319 319 322 324 325 328 334 340 339 343 344 351 350 347 344 339 342 334 330 334 328 326 324 321 316 316 314 311
279 278 278 278 279 282 281 283 289 297 301 306 311 314 314 316 317 318 321 323 324 329 337 340 343 347 348 347 342 340 346 347 338 335 339 332 325 314 311 323 320 320 316